Regional Weather Roundup
Issued by NWS

Home | Current Version | Previous Version | Graphics & Text | Print | Product List | Glossary Off
Versions: 1 2 3 4 5 6 7 8 9 10 11 12 13 14 15 16 17 18 19 20 21 22 23 24 25 26 27 28 29 30 31 32 33 34 35 36 37 38 39 40 41 42 43 44 45 46 47 48 49 50

000
ASUS43 KMKX 230111
RWRWI

WISCONSIN REGIONAL WEATHER ROUNDUP
NATIONAL WEATHER SERVICE MILWAUKEE/SULLIVAN WI
800 PM CDT THU JUN 22 2017

NOTE: "FAIR" INDICATES FEW OR NO CLOUDS BELOW 12,000 FEET WITH NO
SIGNIFICANT WEATHER AND/OR OBSTRUCTIONS TO VISIBILITY.

WIZ001-002-006>008-014>016-023>028-230200-
NORTHWEST WISCONSIN

CITY           SKY/WX    TMP DP  RH WIND       PRES   REMARKS
SUPERIOR ARPT  NOT AVBL
ASHLAND        PTCLDY    71  56  58 SW13      29.67F
HAYWARD        CLEAR     70  55  59 SW5       29.72S
SIREN          CLEAR     70  53  55 CALM      29.73S
CUMBERLAND     PTCLDY    66  57  72 W6        29.74S
RICE LAKE      PTCLDY    69  60  74 W8        29.75S
CHETEK         PTCLDY    66  63  91 CALM      29.74S
LADYSMITH      PTCLDY    67  63  87 W5        29.75S
EAU CLAIRE     LGT RAIN  66  64  93 NW3       29.73S
MENOMONIE      CLOUDY    65  65  99 W5        29.74R
NEW RICHMOND   CLEAR     67  63  85 CALM      29.75R
OSCEOLA        CLEAR     70  61  72 W5        29.76S
$$

WIZ003>005-009-010-017-018-230200-
NORTH CENTRAL WISCONSIN

CITY           SKY/WX    TMP DP  RH WIND       PRES   REMARKS
MANITOWISH WTR PTCLDY    65  58  76 W6        29.72S
ARBOR VITAE    PTCLDY    65  60  85 W6        29.72F
WOODRUFF       PTCLDY    65  60  85 W6        29.72F
RHINELANDER    CLOUDY    63  62  97 W8        29.74F
EAGLE RIVER    CLOUDY    63  61  94 SW3       29.72F
LAND O LAKES   MOCLDY    68  58  70 W5        29.74S
PHILLIPS       PTCLDY    65  62  90 CALM      29.73S
TOMAHAWK       NOT AVBL
MEDFORD        HVY RAIN  63  62  96 NW5       29.74S
MERRILL        LGT RAIN  66  66  99 CALM      29.74R
$$

WIZ029-030-035-036-043>047-230200-
CENTRAL WISCONSIN

CITY           SKY/WX    TMP DP  RH WIND       PRES   REMARKS
WAUSAU         CLOUDY    66  65  96 NW3       29.71F
MOSINEE        NOT AVBL
MARSHFIELD     CLOUDY    67  63  87 NW8       29.72F
STEVENS POINT  CLOUDY    65  65 100 CALM      29.72R
WAUPACA        CLOUDY    68  68  98 SE5       29.70S
WAUTOMA        HVY RAIN  65  65 100 S9        29.71S FOG
WISC RAPIDS    LGT RAIN  68  66  93 NW5       29.73S
CAMP DOUGLAS   MOCLDY    66  66 100 N3        29.70F
$$

WIZ011>013-019>022-031-037>040-048>050-230200-
NORTHEAST WISCONSIN

CITY           SKY/WX    TMP DP  RH WIND       PRES   REMARKS
ANTIGO         CLOUDY    65  64  99 W3        29.73F
SHAWANO        CLOUDY    68  66  92 CALM      29.70S
OCONTO         CLOUDY    68  67  98 N3        29.69F
STURGEON BAY     N/A     69  67  93 S6          N/A
GREEN BAY      RAIN      68  68 100 SW3       29.69F
MANITOWOC      LGT RAIN  69  66  90 N3        29.71F
APPLETON       TSTM      66  64  94 SW3       29.69F
CLINTONVILLE   LGT RAIN  68  64  88 NW5       29.71R
OSHKOSH        LGT RAIN  69  67  93 N5        29.69F
$$

WIZ032>034-041-042-053>061-230200-
SOUTHWEST WISCONSIN

CITY           SKY/WX    TMP DP  RH WIND       PRES   REMARKS
LA CROSSE      LGT RAIN  70  68  93 CALM      29.70R
SPARTA         CLOUDY    65  65 100 N3        29.72R
VIROQUA        CLOUDY    67  67 100 SE6       29.71F
BOSCOBEL       CLOUDY    72  68  87 E6        29.70R
PRAIRIE DU CHI LGT RAIN  74  70  87 CALM      29.68S
PLATTEVILLE    PTCLDY    79  73  83 CALM      29.68F HX  82
$$

WIZ056-057-062-063-064-067-068-230200-
SOUTH CENTRAL WISCONSIN

CITY           SKY/WX    TMP DP  RH WIND       PRES   REMARKS
REEDSBURG      CLOUDY    67  67 100 CALM      29.71F
BARABOO/DELLS  CLOUDY    67  64  90 CALM      29.72S
LONE ROCK      LGT RAIN  71  68  90 N8        29.69F
MINERAL POINT  CLOUDY    75  73  94 NE7       29.69F
MADISON        CLOUDY    73  66  78 SE5       29.71S
MIDDLETON      CLOUDY    73  67  80 E5        29.71F
WATERTOWN      LGT RAIN  71  71 100 CALM      29.71R
MONROE         TSTM      79  70  73 S9        29.69F HX  81
JANESVILLE     MOCLDY    81  68  65 SW10      29.68F HX  83
$$

WIZ051-052-058>065-066-070>072-230200-
SOUTHEAST WISCONSIN

CITY           SKY/WX    TMP DP  RH WIND       PRES   REMARKS
MILWAUKEE      MOCLDY    72  65  78 N5        29.70F
WAUKESHA       LGT RAIN  72  70  94 NE7       29.72S
MILWAUKEE/TIMM LGT RAIN  70  64  83 N9        29.73R
RACINE         CLOUDY    73  64  73 CALM      29.70F
KENOSHA        PTCLDY    82  70  66 SW8       29.69F HX  86
FOND DU LAC    CLOUDY    71  65  81 CALM      29.70F
SHEBOYGAN      CLOUDY    71  68  90 NE5       29.70F
WEST BEND      CLOUDY    72  64  78 CALM      29.70F
JUNEAU         CLOUDY    71  66  84 CALM      29.71F
$$

LSZ147-162-230200-
LAKE SUPERIOR

STATION/POSITION TIME  TEMP    WIND        PRES    WAVE
                       AIR SEA DIR/SP/G            HT/PER
                 (UTC) (F)     (DEG/KT/KT) (MB)    (FT/S)
W MID LAKE BUOY  2350   50 39  220/ 10/ 12 1003.8S   1
DEVILS ISLAND    0000   70     220/ 12/ 15 1003.3F
SAXON HARBOR     0040   74     200/  6/  8 1004.7S
$$

LMZ867-665-643>646-230200-
LAKE MICHIGAN

STATION/POSITION TIME  TEMP    WIND        PRES    WAVE
                       AIR SEA DIR/SP/G            HT/PER
                 (UTC) (F)     (DEG/KT/KT) (MB)    (FT/S)
CHAMBERS ISLAND  0040   66     300/  3/  4 1005.8S
N MID LAKE BUOY  0050   58 54  210/  6/  8 1006.4F   2/ 5
NORTHPORT PIER   0040   67     290/  3/  4 1005.8F
KEWAUNEE LAKESHO 0042   69     270/  4/  9 1005.4F
SHEBOYGAN LAKESH 0100   62      CALM  /  1 1005.4F
PORT WASHINGTON  0040   64      10/  2/  5 1006.8F
ATWATER BUOY     2309   60 56  280/  4/  6 1006.7F
MILWAUKEE LAKESH 0050   67      20/  9/ 10   N/A
S MID LAKE BUOY  2350   66 61  120/  8/ 10 1006.0S   1/ 4
KENOSHA   LAKESH 0100   76     200/  5/  8 1005.1
$$

TC  - TEMPERATURE IN CELSIUS
VSB - VISIBILITY IN STATUTE MILES
WCI - WIND CHILL INDEX
HX  - HEAT INDEX





USA.gov is the U.S. government's official web portal to all federal, state and local government web resources and services.